DW0494 Weather Reports


time (UTC)temp
F
wind
direction
speed
knots
gust
knots
rain 1hr
in
rain 24hr
in
rain mn
in
humidity
%
barometer
mb
20260507160903 67 176 0.0 1.7 0.00 0.01 0.01 74 1020.6
20260507160403 67 215 0.0 1.7 0.00 0.01 0.01 73 1020.6
20260507155404 68 185 0.0 0.9 0.00 0.01 0.01 73 1020.5
20260507154405 68 220 0.0 0.0 0.00 0.01 0.01 73 1020.6
20260507153904 68 222 0.0 0.9 0.00 0.01 0.01 74 1020.6
20260507153403 67 222 0.0 0.9 0.00 0.01 0.01 74 1020.8
20260507152903 67 221 0.0 0.9 0.00 0.01 0.01 72 1020.8
20260507152405 67 221 0.0 0.9 0.00 0.01 0.01 73 1020.8
20260507151904 67 223 0.0 0.9 0.00 0.01 0.01 72 1020.9
20260507151404 68 160 0.0 0.9 0.00 0.01 0.01 72 1020.8
20260507150904 68 198 0.0 0.0 0.00 0.01 0.01 72 1020.8
20260507150404 68 198 0.0 0.9 0.00 0.01 0.01 70 1020.8
20260507145904 68 198 0.0 0.9 0.00 0.01 0.01 70 1020.7
20260507144904 69 214 0.0 1.7 0.00 0.01 0.01 69 1020.8
20260507144404 69 210 0.0 1.7 0.00 0.01 0.01 69 1020.8
20260507143906 70 250 0.9 1.7 0.00 0.01 0.01 67 1020.8
20260507143403 70 212 0.0 1.7 0.00 0.01 0.01 67 1020.8
20260507142905 70 229 0.0 2.6 0.00 0.01 0.01 68 1020.7
20260507142404 71 226 0.9 2.6 0.00 0.01 0.01 68 1020.8
20260507140905 72 253 0.9 2.6 0.00 0.01 0.01 67 1020.7
20260507140404 72 204 0.9 2.6 0.00 0.01 0.01 67 1020.6
20260507135404 72 217 0.9 1.7 0.00 0.01 0.01 68 1020.5
20260507134904 72 230 0.0 1.7 0.00 0.01 0.01 70 1020.5
20260507134404 71 255 0.0 2.6 0.00 0.01 0.01 69 1020.5
20260507133904 71 233 0.9 2.6 0.00 0.01 0.01 68 1020.4
20260507133406 71 217 0.9 2.6 0.00 0.01 0.01 68 1020.5
20260507132905 71 191 0.0 2.6 0.00 0.01 0.01 71 1020.5
20260507132404 71 206 0.0 2.6 0.00 0.01 0.01 72 1020.5
20260507131906 70 201 0.9 2.6 0.00 0.01 0.01 73 1020.6
20260507131406 70 122 0.9 2.6 0.00 0.01 0.01 70 1020.7
20260507130904 69 75 0.0 1.7 0.00 0.01 0.01 73 1020.7
20260507130403 69 45 0.9 1.7 0.00 0.01 0.01 72 1020.8
20260507125903 69 54 0.0 0.9 0.00 0.01 0.01 74 1020.8
20260507125405 68 54 0.0 7.0 0.00 0.01 0.01 73 1020.7
20260507124905 68 4 0.9 7.0 0.00 0.01 0.01 71 1020.6
20260507123904 68 50 1.7 5.2 0.00 0.01 0.01 70 1020.7
20260507123403 69 51 2.6 5.2 0.00 0.01 0.01 69 1021.0
20260507122903 69 52 0.0 1.7 0.00 0.01 0.01 72 1021.2
20260507121903 67 243 0.0 0.9 0.00 0.01 0.01 78 1021.5
20260507121405 66 257 0.0 0.9 0.00 0.01 0.01 79 1021.6
20260507120403 65 2 0.0 1.7 0.00 0.01 0.01 82 1021.6
20260507115906 65 356 0.0 2.6 0.00 0.01 0.01 84 1021.7
20260507115403 65 22 0.9 2.6 0.00 0.01 0.01 84 1021.7
20260507114904 64 43 0.0 1.7 0.01 0.01 0.01 84 1021.8
20260507114403 64 33 0.0 1.7 0.01 0.01 0.01 83 1021.9
20260507113905 65 19 0.9 1.7 0.01 0.01 0.01 83 1021.9
20260507113404 65 30 0.0 0.9 0.01 0.01 0.01 83 1022.1
20260507112903 65 348 0.0 0.0 0.01 0.01 0.01 83 1022.1
20260507105905 65 347 0.0 0.9 0.01 0.01 0.01 79 1022.1
20260507105403 66 283 0.0 0.0 0.01 0.01 0.01 80 1022.2
20260507104903 66 283 0.0 0.9 0.00 0.00 0.00 79 1022.2
20260507104405 67 282 0.0 0.9 0.00 0.00 0.00 78 1022.1
20260507103905 67 294 0.0 0.9 0.00 0.00 0.00 76 1022.2
20260507103403 67 295 0.0 1.7 0.00 0.00 0.00 75 1022.2
20260507102904 67 295 0.0 1.7 0.00 0.00 0.00 71 1022.1
20260507102403 68 314 0.9 1.7 0.00 0.00 0.00 69 1022.1
20260507101904 68 285 0.0 1.7 0.00 0.00 0.00 70 1022.1
20260507100903 68 257 0.0 4.3 0.00 0.00 0.00 68 1022.1
20260507100403 68 243 1.7 4.3 0.00 0.00 0.00 70 1022.1
20260507095905 68 249 1.7 4.3 0.00 0.00 0.00 68 1022.1
20260507095404 68 245 0.9 2.6 0.00 0.00 0.00 67 1022.1
20260507094905 68 240 0.0 2.6 0.00 0.00 0.00 67 1021.9
20260507093405 69 238 0.9 2.6 0.00 0.00 0.00 64 1021.8
20260507092904 69 269 0.0 0.9 0.00 0.00 0.00 64 1021.7
20260507092406 69 287 0.0 0.9 0.00 0.00 0.00 62 1021.5
20260507091904 69 296 0.0 0.9 0.00 0.00 0.00 61 1021.4
20260507091404 69 350 0.0 1.7 0.00 0.00 0.00 64 1021.4
20260507090904 68 213 0.0 1.7 0.00 0.00 0.00 64 1021.3
20260507090405 68 268 0.0 1.7 0.00 0.00 0.00 65 1021.3
20260507084404 68 219 0.0 0.9 0.00 0.00 0.00 66 1021.1
20260507083903 68 217 0.0 1.7 0.00 0.00 0.00 65 1021.1
20260507083403 68 221 0.0 1.7 0.00 0.00 0.00 68 1021.1
20260507082905 68 238 0.0 2.6 0.00 0.00 0.00 68 1021.1
20260507082404 68 244 0.9 2.6 0.00 0.00 0.00 68 1021.0
20260507081904 68 237 0.0 2.6 0.00 0.00 0.00 69 1021.0
20260507081405 68 229 0.9 2.6 0.00 0.00 0.00 67 1021.0
20260507080903 69 249 0.0 1.7 0.00 0.00 0.00 68 1020.9
20260507075903 69 220 0.0 1.7 0.00 0.00 0.00 67 1020.8
20260507075403 68 196 0.0 1.7 0.00 0.00 0.00 69 1020.7
20260507074905 68 251 0.9 1.7 0.00 0.00 0.00 68 1020.6
20260507074404 69 192 0.0 0.9 0.00 0.00 0.00 68 1020.5
20260507073903 69 211 0.0 0.9 0.00 0.00 0.00 67 1020.3
20260507073404 68 214 0.0 1.7 0.00 0.00 0.00 69 1020.3
20260507072905 68 209 0.0 1.7 0.00 0.00 0.00 70 1020.4
20260507071904 68 238 0.9 1.7 0.00 0.00 0.00 69 1020.2
20260507071404 68 238 0.0 1.7 0.00 0.00 0.00 70 1020.3
20260507070404 68 277 0.9 1.7 0.00 0.00 0.00 71 1020.2
20260507065907 66 248 0.0 0.9 0.00 0.00 0.00 73 1020.3
20260507065404 66 279 0.0 0.9 0.00 0.00 0.00 72 1020.4
20260507064404 67 231 0.0 2.6 0.00 0.00 0.00 72 1020.5
20260507063905 67 248 0.0 2.6 0.00 0.00 0.00 71 1020.5
20260507062403 68 280 0.9 2.6 0.00 0.00 0.00 70 1020.5
20260507061906 68 275 0.9 2.6 0.00 0.00 0.00 68 1020.4
20260507060903 70 300 0.9 1.7 0.00 0.00 0.00 64 1020.2
20260507060404 70 238 0.0 1.7 0.00 0.00 0.00 65 1020.2
20260507055405 70 201 0.0 0.9 0.00 0.00 0.00 64 1020.1
20260507054903 70 203 0.0 0.9 0.00 0.00 0.00 66 1020.0
20260507053904 68 205 0.0 1.7 0.00 0.00 0.00 69 1020.0
20260507053405 68 249 0.9 1.7 0.00 0.00 0.00 68 1020.1
20260507052406 68 329 0.0 0.9 0.00 0.00 0.00 67 1019.9
20260507051904 67 38 0.0 0.0 0.00 0.00 0.00 68 1019.9
20260507050903 67 38 0.0 0.0 0.00 0.00 0.00 67 1019.8
20260507050405 67 38 0.0 0.0 0.00 0.00 0.00 70 1019.8
20260507045403 66 39 0.0 0.0 0.00 0.00 0.00 69 1019.8
20260507044903 66 39 0.0 0.0 0.00 0.00 0.00 69 1019.9
20260507044405 66 39 0.0 0.0 0.00 0.00 0.00 70 1019.8
20260507043903 65 39 0.0 0.0 0.00 0.00 0.00 72 1019.8
20260507042903 63 39 0.0 0.0 0.00 0.00 0.00 76 1019.8
20260507042405 61 39 0.0 0.0 0.00 0.00 0.00 79 1019.9
20260507041903 60 39 0.0 0.0 0.00 0.00 0.00 81 1019.8
20260507040904 57 39 0.0 0.0 0.00 0.00 0.00 82 1019.7
20260507040404 57 39 0.0 0.0 0.00 0.00 0.00 81 1019.7
20260507035904 57 39 0.0 0.0 0.00 0.00 0.00 81 1019.7
20260507035404 57 39 0.0 0.0 0.00 0.00 0.00 81 1019.6
20260507034904 57 39 0.0 0.0 0.00 0.00 0.00 81 1019.6
20260507034405 57 39 0.0 0.0 0.00 0.00 0.00 81 1019.5
20260507033903 57 39 0.0 0.0 0.00 0.00 0.00 81 1019.4
20260507033403 57 39 0.0 0.0 0.00 0.00 0.00 82 1019.4
20260507032904 57 39 0.0 0.0 0.00 0.00 0.00 82 1019.4
20260507032406 57 39 0.0 0.0 0.00 0.00 0.00 82 1019.3
20260507031905 57 39 0.0 0.0 0.00 0.00 0.00 82 1019.3
20260507031403 57 39 0.0 0.0 0.00 0.00 0.00 82 1019.3
20260507030904 57 39 0.0 0.0 0.00 0.00 0.00 82 1019.4
20260507030404 57 39 0.0 0.0 0.00 0.00 0.00 82 1019.3
20260507025904 57 39 0.0 0.0 0.00 0.00 0.00 83 1019.3
20260507025405 57 39 0.0 0.0 0.00 0.00 0.00 83 1019.3
20260507024903 57 39 0.0 0.0 0.00 0.00 0.00 83 1019.2
20260507024403 57 39 0.0 0.0 0.00 0.00 0.00 83 1019.2
20260507023903 58 39 0.0 0.0 0.00 0.00 0.00 83 1019.1
20260507023405 58 39 0.0 0.9 0.00 0.00 0.00 84 1019.1
20260507022905 57 39 0.0 0.9 0.00 0.00 0.00 84 1019.0
20260507022405 57 32 0.0 0.9 0.00 0.00 0.00 85 1018.9
20260507021904 57 27 0.0 0.0 0.00 0.00 0.00 85 1018.9
20260507021406 57 27 0.0 0.0 0.00 0.00 0.00 84 1019.1
20260507020904 57 27 0.0 0.0 0.00 0.00 0.00 84 1019.1
20260507020406 57 27 0.0 0.0 0.00 0.00 0.00 84 1019.1
20260507015904 57 27 0.0 0.9 0.00 0.00 0.00 84 1019.0
20260507014906 58 27 0.0 0.9 0.00 0.00 0.00 84 1018.8
20260507014404 58 27 0.0 1.7 0.00 0.00 0.00 84 1018.9
20260507013904 57 27 0.0 1.7 0.00 0.00 0.00 85 1018.8
20260507012905 57 22 0.0 0.9 0.00 0.00 0.00 86 1018.9
20260507011903 57 17 0.0 0.9 0.00 0.00 0.00 86 1018.9
20260507011403 57 17 0.0 0.0 0.00 0.00 0.00 86 1018.9
20260507010906 57 17 0.0 0.0 0.00 0.00 0.00 86 1018.8
20260507010403 57 17 0.0 0.0 0.00 0.00 0.00 85 1018.8
20260507005904 57 17 0.0 0.0 0.00 0.00 0.00 85 1018.8
20260507005406 57 17 0.0 0.0 0.00 0.00 0.00 85 1018.8
20260507004904 57 16 0.0 0.9 0.00 0.00 0.00 85 1018.7
20260507004405 57 17 0.0 0.9 0.00 0.00 0.00 85 1018.6
20260507003904 57 23 0.0 0.0 0.00 0.00 0.00 85 1018.5
20260507003404 58 23 0.0 0.0 0.00 0.00 0.00 85 1018.5
20260507002916 58 23 0.0 0.0 0.00 0.00 0.00 85 1018.4
20260507002404 58 23 0.0 0.9 0.00 0.00 0.00 84 1018.4
20260507001903 58 23 0.0 0.9 0.00 0.00 0.00 85 1018.4
20260507001403 58 23 0.0 0.9 0.00 0.00 0.00 85 1018.4
20260507000904 58 20 0.9 0.9 0.00 0.00 0.00 85 1018.4
20260506235904 58 37 0.0 0.9 0.00 0.00 0.00 86 1018.7
20260506234904 57 37 0.0 0.9 0.00 0.00 0.00 86 1018.8
20260506234405 58 37 0.0 0.0 0.00 0.00 0.00 87 1019.0
20260506233905 58 37 0.0 0.0 0.00 0.00 0.00 86 1019.0
20260506233405 58 37 0.0 0.0 0.00 0.00 0.00 86 1018.9
20260506232904 58 37 0.0 0.0 0.00 0.00 0.00 86 1018.9
20260506232403 58 37 0.0 0.0 0.00 0.00 0.00 86 1018.9
20260506231404 58 37 0.0 0.0 0.00 0.00 0.00 86 1018.8
20260506230905 58 37 0.0 0.0 0.00 0.00 0.00 86 1018.8
20260506230404 58 37 0.0 0.0 0.00 0.00 0.00 86 1018.8
20260506225904 58 37 0.0 0.0 0.00 0.00 0.00 86 1018.9
20260506225404 58 37 0.0 0.0 0.00 0.00 0.00 86 1018.8
20260506224905 58 37 0.0 0.0 0.00 0.00 0.00 86 1019.0
20260506224404 58 37 0.0 0.0 0.00 0.00 0.00 86 1018.9
20260506223904 59 37 0.0 0.0 0.00 0.00 0.00 86 1018.9
20260506223406 59 37 0.0 0.0 0.00 0.00 0.00 86 1018.9
20260506222904 59 37 0.0 0.0 0.00 0.00 0.00 86 1019.0
20260506222404 59 37 0.0 0.0 0.00 0.00 0.00 86 1018.9
20260506221904 59 37 0.0 0.0 0.00 0.00 0.00 86 1018.9
20260506221405 59 37 0.0 0.0 0.00 0.00 0.00 86 1018.9
20260506220904 59 37 0.0 0.0 0.00 0.00 0.00 86 1018.9
20260506220404 60 37 0.0 0.9 0.00 0.00 0.00 86 1018.9
20260506215905 60 37 0.0 1.7 0.00 0.00 0.00 86 1018.9
20260506215404 60 37 0.0 1.7 0.00 0.00 0.00 86 1018.9
20260506214903 60 32 0.0 0.9 0.00 0.00 0.00 86 1018.9
20260506213403 60 38 0.0 1.7 0.00 0.00 0.00 86 1019.0
20260506211904 60 32 0.0 0.9 0.00 0.00 0.00 85 1019.1
20260506211404 60 32 0.0 0.9 0.00 0.00 0.00 85 1019.1
20260506210904 60 22 0.0 0.9 0.00 0.00 0.00 85 1019.1
20260506205906 61 22 0.0 0.9 0.00 0.00 0.00 85 1019.2
20260506204904 61 11 0.0 0.9 0.00 0.00 0.00 85 1019.2
20260506204405 61 11 0.0 0.9 0.00 0.00 0.00 85 1019.1
20260506203904 61 11 0.0 0.9 0.00 0.00 0.00 85 1019.1
20260506203404 61 11 0.0 0.9 0.00 0.00 0.00 85 1019.0
20260506202904 61 11 0.0 0.0 0.00 0.00 0.00 85 1019.0
20260506202405 61 11 0.0 0.0 0.00 0.00 0.00 84 1018.9
20260506201903 61 11 0.0 0.0 0.00 0.00 0.00 84 1018.9
20260506201404 61 11 0.0 0.0 0.00 0.00 0.00 85 1018.9
20260506200905 61 11 0.0 0.9 0.00 0.00 0.00 84 1018.9
20260506200404 61 11 0.0 0.9 0.00 0.00 0.00 84 1019.0
20260506195904 61 12 0.0 0.9 0.00 0.00 0.00 84 1018.9
20260506195404 61 12 0.0 0.9 0.00 0.00 0.00 84 1018.9
20260506194903 61 12 0.0 0.9 0.00 0.00 0.00 84 1018.7
20260506193906 61 0 0.0 0.0 0.00 0.00 0.00 83 1018.6
20260506193403 61 1 0.0 0.0 0.00 0.00 0.00 83 1018.5
20260506192905 62 1 0.0 0.0 0.00 0.00 0.00 83 1018.6
20260506192403 62 1 0.0 0.0 0.00 0.00 0.00 83 1018.5
20260506191904 62 1 0.0 0.0 0.00 0.00 0.00 83 1018.5
20260506191404 62 1 0.0 0.0 0.00 0.00 0.00 83 1018.5
20260506190905 62 1 0.0 0.0 0.00 0.00 0.00 84 1018.5
20260506185903 62 1 0.0 0.9 0.00 0.00 0.00 84 1018.5
20260506185403 62 2 0.0 0.9 0.00 0.00 0.00 83 1018.4
20260506184404 62 352 0.0 0.9 0.00 0.00 0.00 83 1018.4
20260506183904 62 349 0.0 0.9 0.00 0.00 0.00 83 1018.3
20260506183404 63 348 0.0 0.9 0.00 0.00 0.00 83 1018.2
20260506182905 63 348 0.0 0.9 0.00 0.00 0.00 83 1018.2
20260506181904 63 306 0.0 0.9 0.00 0.00 0.00 83 1018.0
20260506181403 63 275 0.0 0.9 0.00 0.00 0.00 82 1017.9
20260506180903 63 233 0.0 0.0 0.00 0.00 0.00 82 1018.0
20260506180403 64 233 0.0 0.0 0.00 0.00 0.00 81 1017.9
20260506175903 64 233 0.0 0.0 0.00 0.00 0.00 81 1017.8
20260506175404 64 233 0.0 0.0 0.00 0.00 0.00 80 1017.7
20260506174904 64 233 0.0 0.0 0.00 0.00 0.00 80 1017.7
20260506174405 64 233 0.0 0.0 0.00 0.00 0.00 80 1017.7
20260506173904 65 233 0.0 0.0 0.00 0.00 0.00 79 1017.5
20260506173404 66 233 0.0 0.9 0.00 0.00 0.00 78 1017.5
20260506172904 66 233 0.0 0.9 0.00 0.00 0.00 77 1017.4
20260506172405 67 233 0.0 0.9 0.00 0.00 0.00 76 1017.5
20260506171903 68 197 0.0 0.9 0.00 0.00 0.00 75 1017.4
20260506171403 69 196 0.0 0.9 0.00 0.00 0.00 73 1017.4
20260506170906 69 229 0.0 0.0 0.00 0.00 0.00 72 1017.4
20260506165904 71 229 0.0 1.7 0.00 0.00 0.00 70 1017.4
20260506165404 72 221 0.9 1.7 0.00 0.00 0.00 68 1017.4
20260506164904 72 208 0.0 2.6 0.00 0.00 0.00 68 1017.3
20260506164405 72 218 0.9 2.6 0.00 0.00 0.00 67 1017.3
20260506163904 73 197 0.9 2.6 0.00 0.00 0.00 66 1017.4
20260506162906 74 221 1.7 2.6 0.00 0.00 0.00 63 1017.4
20260506161903 76 206 1.7 6.1 0.00 0.00 0.00 56 1017.4